• In Russia
  • List of Countries
  • For 7 days
  • Water Temperature
  • Satellite Maps
  • Weather Map
  • Weather Widgets
  • user-avatar
    Login

    Hourly Weather Malaya Hmelevaya

    Today, 26 September, Wednesday

    Time Temperature Precipitation Wind Pressure Humidity
    00:00 +6°C° 0 mm 4 mps 742 mmHg 75%
    01:00 +6°C° 0 mm 4 mps 742 mmHg 77%
    02:00 +5°C° 0 mm 4 mps 743 mmHg 80%
    03:00 +4°C° 0 mm 3 mps 743 mmHg 82%
    04:00 +4°C° 0 mm 3 mps 743 mmHg 84%
    05:00 +3°C° 0 mm 3 mps 744 mmHg 86%
    06:00 +3°C° 0 mm 4 mps 744 mmHg 88%
    07:00 +4°C° 0 mm 4 mps 745 mmHg 85%
    08:00 +4°C° 0 mm 4 mps 746 mmHg 81%
    09:00 +5°C° 0 mm 5 mps 746 mmHg 76%
    10:00 +6°C° 0 mm 5 mps 747 mmHg 71%
    11:00 +7°C° 0 mm 5 mps 747 mmHg 65%
    12:00 +8°C° 0 mm 5 mps 747 mmHg 59%
    13:00 +8°C° 0 mm 5 mps 747 mmHg 57%
    14:00 +9°C° 0 mm 5 mps 747 mmHg 55%
    15:00 +9°C° 0 mm 5 mps 747 mmHg 53%
    16:00 +8°C° 0 mm 4 mps 747 mmHg 56%
    17:00 +8°C° 0 mm 3 mps 747 mmHg 60%
    18:00 +8°C° 0 mm 3 mps 747 mmHg 63%
    19:00 +7°C° 0 mm 3 mps 747 mmHg 64%
    20:00 +6°C° 0 mm 4 mps 747 mmHg 65%
    21:00 +5°C° 0 mm 4 mps 747 mmHg 66%
    22:00 +5°C° 0 mm 5 mps 746 mmHg 66%
    23:00 +4°C° 0 mm 6 mps 745 mmHg 66%

    Tomorrow, 27 September, Thursday

    Time Temperature Precipitation Wind Pressure Humidity
    00:00 +4°C° 0 mm 6 mps 745 mmHg 67%
    01:00 +5°C° 0 mm 7 mps 744 mmHg 65%
    02:00 +5°C° 0 mm 8 mps 743 mmHg 63%
    03:00 +5°C° 0 mm 8 mps 743 mmHg 61%
    04:00 +5°C° 0.3 mm 9 mps 741 mmHg 62%
    05:00 +5°C° 0.3 mm 9 mps 740 mmHg 64%
    06:00 +5°C° 0.3 mm 10 mps 739 mmHg 66%
    07:00 +5°C° 0.4 mm 10 mps 739 mmHg 69%
    08:00 +4°C° 0.4 mm 11 mps 738 mmHg 73%
    09:00 +4°C° 0.4 mm 11 mps 738 mmHg 76%
    10:00 +4°C° 0.3 mm 11 mps 737 mmHg 78%
    11:00 +4°C° 0.3 mm 11 mps 737 mmHg 80%
    12:00 +6°C° 0.3 mm 10 mps 737 mmHg 82%
    13:00 +6°C° 0.1 mm 10 mps 737 mmHg 82%
    14:00 +7°C° 0.1 mm 9 mps 737 mmHg 82%
    15:00 +7°C° 0.1 mm 9 mps 737 mmHg 82%
    16:00 +7°C° 0.1 mm 8 mps 737 mmHg 81%
    17:00 +9°C° 0.1 mm 7 mps 737 mmHg 80%
    18:00 +9°C° 0.1 mm 6 mps 738 mmHg 79%
    19:00 +8°C° 0 mm 6 mps 738 mmHg 80%
    20:00 +8°C° 0 mm 5 mps 739 mmHg 81%
    21:00 +7°C° 0 mm 5 mps 739 mmHg 81%
    22:00 +7°C° 0 mm 5 mps 739 mmHg 83%
    23:00 +7°C° 0 mm 5 mps 739 mmHg 85%

    Day after tomorrow, 28 September, Friday

    Time Temperature Precipitation Wind Pressure Humidity
    00:00 +6°C° 0 mm 5 mps 740 mmHg 87%
    01:00 +6°C° 0 mm 5 mps 740 mmHg 88%
    02:00 +6°C° 0 mm 5 mps 740 mmHg 88%
    03:00 +5°C° 0 mm 4 mps 740 mmHg 89%
    04:00 +5°C° 0 mm 5 mps 740 mmHg 89%
    05:00 +5°C° 0 mm 5 mps 740 mmHg 90%
    06:00 +5°C° 0 mm 5 mps 739 mmHg 91%
    07:00 +5°C° 0 mm 6 mps 739 mmHg 86%
    08:00 +8°C° 0 mm 7 mps 739 mmHg 81%
    09:00 +8°C° 0 mm 9 mps 738 mmHg 76%
    10:00 +10°C° 0 mm 9 mps 738 mmHg 73%
    11:00 +12°C° 0 mm 10 mps 738 mmHg 69%
    12:00 +13°C° 0 mm 10 mps 737 mmHg 66%
    13:00 +14°C° 0 mm 10 mps 737 mmHg 65%
    14:00 +16°C° 0 mm 10 mps 736 mmHg 64%
    15:00 +17°C° 0 mm 10 mps 736 mmHg 63%
    16:00 +16°C° 0.1 mm 10 mps 736 mmHg 67%
    17:00 +15°C° 0.1 mm 9 mps 735 mmHg 71%
    18:00 +15°C° 0.1 mm 8 mps 735 mmHg 76%
    19:00 +13°C° 0.1 mm 8 mps 735 mmHg 77%
    20:00 +13°C° 0.1 mm 8 mps 736 mmHg 79%
    21:00 +12°C° 0.1 mm 7 mps 736 mmHg 81%
    22:00 +11°C° 0 mm 6 mps 737 mmHg 80%
    23:00 +10°C° 0 mm 6 mps 737 mmHg 78%

    29 September, Saturday

    Time Temperature Precipitation Wind Pressure Humidity
    00:00 +9°C° 0 mm 5 mps 738 mmHg 77%
    01:00 +8°C° 0 mm 4 mps 739 mmHg 80%
    02:00 +8°C° 0 mm 3 mps 739 mmHg 83%
    03:00 +5°C° 0 mm 3 mps 740 mmHg 86%
    04:00 +5°C° 0 mm 3 mps 740 mmHg 87%
    05:00 +5°C° 0 mm 2 mps 741 mmHg 88%
    06:00 +5°C° 0 mm 2 mps 741 mmHg 89%
    07:00 +5°C° 0 mm 2 mps 741 mmHg 84%
    08:00 +6°C° 0 mm 2 mps 742 mmHg 78%
    09:00 +6°C° 0 mm 2 mps 742 mmHg 73%
    10:00 +7°C° 0 mm 2 mps 742 mmHg 66%
    11:00 +8°C° 0 mm 2 mps 743 mmHg 59%
    12:00 +9°C° 0 mm 2 mps 743 mmHg 52%
    13:00 +10°C° 0 mm 3 mps 743 mmHg 50%
    14:00 +10°C° 0 mm 3 mps 743 mmHg 48%
    15:00 +10°C° 0 mm 3 mps 743 mmHg 47%
    16:00 +9°C° 0 mm 3 mps 743 mmHg 49%
    17:00 +9°C° 0 mm 2 mps 744 mmHg 52%
    18:00 +8°C° 0 mm 2 mps 744 mmHg 55%
    19:00 +8°C° 0 mm 2 mps 744 mmHg 57%
    20:00 +7°C° 0 mm 2 mps 745 mmHg 58%
    21:00 +7°C° 0 mm 2 mps 745 mmHg 60%
    22:00 +6°C° 0 mm 2 mps 746 mmHg 63%
    23:00 +6°C° 0 mm 2 mps 746 mmHg 65%

    30 September, Sunday

    Time Temperature Precipitation Wind Pressure Humidity
    00:00 +5°C° 0 mm 2 mps 746 mmHg 68%
    01:00 +5°C° 0 mm 2 mps 746 mmHg 70%
    02:00 +4°C° 0 mm 2 mps 747 mmHg 72%
    03:00 +4°C° 0 mm 2 mps 747 mmHg 73%
    04:00 +3°C° 0 mm 2 mps 747 mmHg 75%
    05:00 +3°C° 0 mm 2 mps 748 mmHg 76%
    06:00 +2°C° 0 mm 2 mps 748 mmHg 77%
    07:00 +3°C° 0 mm 2 mps 748 mmHg 73%
    08:00 +6°C° 0 mm 1 mps 749 mmHg 69%
    09:00 +7°C° 0 mm 1 mps 749 mmHg 64%
    10:00 +7°C° 0 mm 2 mps 749 mmHg 59%
    11:00 +8°C° 0 mm 2 mps 749 mmHg 53%
    12:00 +9°C° 0 mm 2 mps 749 mmHg 47%
    13:00 +10°C° 0 mm 2 mps 749 mmHg 46%
    14:00 +10°C° 0 mm 2 mps 749 mmHg 45%
    15:00 +11°C° 0 mm 3 mps 748 mmHg 44%
    16:00 +10°C° 0 mm 2 mps 748 mmHg 49%
    17:00 +9°C° 0 mm 2 mps 748 mmHg 54%
    18:00 +8°C° 0 mm 2 mps 748 mmHg 60%
    19:00 +7°C° 0 mm 2 mps 748 mmHg 61%
    20:00 +7°C° 0 mm 3 mps 748 mmHg 63%
    21:00 +5°C° 0 mm 3 mps 748 mmHg 64%
    22:00 +5°C° 0 mm 3 mps 748 mmHg 65%
    23:00 +5°C° 0 mm 3 mps 748 mmHg 67%

    1 October, Monday

    Time Temperature Precipitation Wind Pressure Humidity
    00:00 +4°C° 0 mm 3 mps 748 mmHg 68%
    01:00 +4°C° 0 mm 3 mps 748 mmHg 69%
    02:00 +4°C° 0 mm 3 mps 748 mmHg 70%
    03:00 +4°C° 0 mm 3 mps 748 mmHg 72%
    04:00 +3°C° 0 mm 3 mps 748 mmHg 73%
    05:00 +3°C° 0 mm 3 mps 748 mmHg 74%
    06:00 +3°C° 0 mm 3 mps 748 mmHg 75%
    07:00 +4°C° 0 mm 3 mps 748 mmHg 71%
    08:00 +5°C° 0 mm 3 mps 748 mmHg 68%
    09:00 +7°C° 0 mm 3 mps 748 mmHg 65%
    10:00 +8°C° 0 mm 4 mps 748 mmHg 60%
    11:00 +10°C° 0 mm 4 mps 748 mmHg 55%
    12:00 +11°C° 0 mm 4 mps 748 mmHg 51%
    13:00 +12°C° 0 mm 4 mps 748 mmHg 49%
    14:00 +12°C° 0 mm 3 mps 747 mmHg 47%
    15:00 +13°C° 0 mm 3 mps 747 mmHg 46%
    16:00 +11°C° 0 mm 3 mps 747 mmHg 49%
    17:00 +10°C° 0 mm 2 mps 746 mmHg 52%
    18:00 +9°C° 0 mm 2 mps 746 mmHg 56%
    19:00 +9°C° 0 mm 2 mps 746 mmHg 56%
    20:00 +8°C° 0 mm 2 mps 746 mmHg 55%
    21:00 +7°C° 0 mm 2 mps 746 mmHg 55%
    22:00 +7°C° 0 mm 2 mps 746 mmHg 54%
    23:00 +6°C° 0 mm 2 mps 746 mmHg 53%
    Show more